Kuiper-00150

operational
NORAD ID: 65770 Int'l Des: 2025-217 Owner: KUIP Country: US Constellation: kuiper
NOTLE

About Kuiper-00150

Description loading...

Live Position

Loading 3D Globe...

Upcoming Passes

Altitude History

Altitude vs Time

uPlot chart will show altitude changes over time

Two-Line Element Set

1 65770U 25217J 26049.19281167 .00004475 00000-0 61543-3 0 9990
2 65770 51.9023 136.8157 0000745 177.7900 182.3066 14.79946882 21888
Epoch: Feb 18, 2026 • Age: 15 hours

Current Status

Altitude 630.0 km
Velocity 7.55 km/s
Sub-Earth Point 14.62°N, 67.62°E
Launch Date Sep 25, 2025
Age 0.3 years
Type internet

Technical Details

Classification Payload
Mass 490.00 kg
Dry Mass 490.00 kg
Total Mass 490.00 kg
Length 1.80 m
Diameter 0.70 m
Span 5.00 m
Shape Box + 2 pan
Manufacturer KUIP
Bus Type Kuiper
Phase Status In Orbit
Owner/State KUIP/US

Large Constellations

Loading constellations...